CAPE
1204 1214 998 1179 1683 1874 1516 1495 1535 1890 1574 982 644 1075 1641 1772 1907 1588 1667 1546 1535 1357 1167 1001 871 1030 814 789 870 983 979 932 688 507 496 787 587 1023 776 755 930 785 840
1015 1362 1540 1136 1152 1459 1705 1847 1531 1743 1691 1158 953 144 253 1031 1690 1602 1586 1360 1330 1168 1149 983 1064 1001 1049 985 845 934 993 917 716 740 580 622 652 747 663 1056 883 783 838
1146 1274 1440 1479 1266 1215 1140 1428 1314 1458 1485 1214 1181 464 216 1391 1538 1602 1302 1332 1302 1343 1063 1008 1046 1064 1002 960 1031 918 1015 987 876 818 615 485 282 603 791 1019 914 762 786
1208 1240 1212 1437 1329 1266 1252 1052 1042 899 863 1081 1347 1061 667 597 1318 1299 1403 1272 1262 1227 1256 1224 1364 1223 1264 1104 1057 1130 937 855 890 731 510 158 215 516 359 455 660 1009 601
1021 1092 1126 1006 1155 1412 1318 1155 966 871 831 776 866 937 978 864 1096 1516 1619 1465 1246 1281 1249 1239 1375 1241 1228 1179 1172 1165 858 843 670 572 305 246 356 433 291 371 382 294 570
852 976 1085 1045 1215 1038 1088 925 816 628 563 481 431 409 415 652 813 638 770 1287 1273 1184 1201 1341 1246 1020 896 825 674 618 805 635 425 501 414 250 295 427 361 413 325 316 291
480 669 750 1005 890 891 875 848 795 733 575 417 378 355 268 333 235 264 331 525 744 1218 1304 1267 1140 984 897 1172 487 339 271 254 366 697 539 443 367 391 452 521 454 456 368
146 311 482 502 568 841 874 999 959 831 614 443 391 387 380 345 220 238 133 483 718 932 1079 1212 985 891 1031 929 902 889 604 351 348 318 419 420 516 633 558 703 626 589 583
14 92 147 262 95 549 612 793 995 616 653 671 511 361 364 376 67 0 2 87 308 596 825 728 839 667 292 269 666 663 461 234 163 110 87 138 215 176 277 598 529 492 367
3 7 12 142 227 343 544 857 782 750 596 488 374 238 112 185 49 7 0 61 121 118 87 119 121 169 54 27 130 95 107 55 30 66 35 74 28 68 119 255 254 272 374
54 73 82 107 64 121 710 317 744 505 525 331 187 73 47 18 14 13 0 35 134 141 23 36 0 0 0 0 1 7 12 9 12 40 33 85 216 428 589 482 473 367 328
24 86 149 88 265 246 262 211 335 264 324 206 75 47 15 3 2 11 1 0 73 24 0 2 1 0 0 0 0 0 0 0 4 5 24 92 44 41 190 454 345 315 265
43 60 126 78 82 248 217 141 204 191 331 323 266 192 115 33 0 5 19 21 15 157 3 0 0 0 0 0 0 0 0 0 2 14 17 6 13 19 83 77 153 208 121
15 5 17 1 36 42 190 218 162 150 119 188 250 142 94 47 8 0 0 0 0 0 0 0 0 0 0 2 0 0 0 0 2 31 45 51 72 43 5 15 8 23 30
13 6 0 0 0 19 0 66 12 0 0 71 10 33 23 0 0 0 0 0 0 0 0 0 0 0 2 3 2 2 7 11 5 5 10 17 30 44 78 127 185 205 179
19 8 2 20 19 6 4 2 0 0 0 0 0 0 0 0 0 0 0 0 0 0 0 6 4 1 0 0 0 0 0 0 1 0 1 2 3 3 6 13 34 35 38
14 97 35 13 20 14 16 22 133 0 0 0 0 0 0 0 0 0 0 0 0 0 0 9 6 7 11 14 11 4 0 0 3 1 1 2 3 2 4 10 7 6 8
26 0 22 8 0 1 1 3 15 18 35 10 0 0 0 0 0 0 0 0 0 0 3 9 2 21 16 0 0 0 1 1 1 5 5 1 1 14 11 1 7 22 16
3 0 1 0 0 0 0 0 0 1 0 0 5 0 0 0 0 0 0 0 0 2 6 6 16 8 4 2 0 0 1 6 4 3 4 5 8 4 5 8 10 8 9
0 0 0 0 1 0 0 0 0 0 0 0 1 6 1 0 0 0 0 7 19 7 18 19 19 19 0 0 0 1 5 1 3 10 3 3 3 2 4 5 5 19 24
25 22 0 6 2 0 0 0 0 0 0 0 0 1 0 0 0 0 5 9 12 16 15 13 6 26 24 0 3 14 23 16 20 16 21 16 19 8 3 8 5 7 5
19 16 21 32 31 25 2 0 5 10 6 0 0 0 0 0 0 1 0 5 10 23 23 25 22 18 10 10 0 0 2 16 29 15 10 11 18 16 18 5 3 4 2
8 20 7 9 14 25 22 31 39 28 30 22 15 7 2 5 9 11 18 17 18 27 36 33 28 27 45 26 27 14 16 19 35 35 20 27 26 18 22 16 26 20 13
19 12 16 28 36 18 15 2 18 24 18 18 22 22 23 23 19 16 24 43 25 40 47 47 52 52 59 53 63 36 30 19 23 46 64 45 33 32 27 19 26 29 37
1 1 8 19 14 12 9 3 4 3 4 10 0 0 0 3 0 0 0 1 3 5 12 21 45 38 38 41 13 11 20 18 29 40 63 45 53 34 31 32 27 33 26
10 4 6 10 4 0 0 0 0 0 2 8 0 0 2 4 6 0 0 0 0 0 0 0 0 0 0 0 0 0 0 0 5 1 107 45 22 20 26 41 29 25 22
CIN
-12 -20 -41 -28 -1 0 -28 -26 -9 -5 -11 -40 -31 -15 -5 -5 -1 -3 -1 -1 -3 -6 -8 -3 -6 -11 -3 -2 -2 -1 -1 -1 -1 -17 -10 -6 -13 -10 -10 -4 -3 -5 -2
-10 -5 -7 -38 -32 -6 -2 -4 -7 -2 -3 -6 -22 -13 -82 -14 -6 -4 -1 -1 -4 -7 -6 -7 -3 -2 -8 -6 -8 -3 -1 -1 0 -2 -1 -2 -6 -3 -9 -4 -6 -5 -1
-1 -1 -1 -2 -12 -19 -32 -11 -4 0 0 -2 -4 -39 -4 -4 -2 -2 -6 -2 -3 -2 -12 -3 -5 -4 -7 -5 -7 -4 -1 -1 -1 0 -6 -1 -5 -7 -9 -5 -2 -2 -10
-3 -3 -4 -1 -4 -8 -13 -23 -16 -43 -64 -1 -1 -2 -4 -13 -4 -3 -1 -5 -6 -3 -3 -5 -1 -5 -4 -10 -9 -7 -5 -2 -1 -1 -17 -55 -2 -8 -5 -12 -3 -1 -5
-1 -1 -1 -12 -3 -1 -1 -18 -34 -35 -37 -30 -58 -30 -12 -8 0 0 -1 -1 -5 -3 -3 -2 -2 -3 -3 -6 -2 -10 -12 -2 -1 -1 -31 -60 -1 -3 -1 -3 -5 -1 -6
0 0 0 -2 0 -5 -1 -18 -33 -48 -66 -63 -69 -96 -55 -13 -11 -32 -24 0 -1 -4 -5 -4 -3 -5 -6 -11 -26 -29 -13 -10 -4 -3 -1 -56 -26 -5 -1 -2 -2 -3 -2
-1 0 -7 -1 -1 -1 -1 -1 -1 -1 -9 -36 -19 -37 -82 -57 -48 -67 -72 -21 -2 -2 -2 -5 -4 -2 -3 -2 -48 -35 -25 -29 -16 -3 -2 -7 -19 -16 -7 -2 -3 -4 -3
-22 -25 -5 -9 -9 -1 -1 0 -3 -3 -8 -26 -10 -4 -5 -10 -40 -50 -54 -1 0 0 0 -3 -4 -7 -2 -2 -1 -1 -2 -5 -17 -16 -8 -11 -24 -14 -8 -4 -5 -3 -2
-61 -25 -15 -4 -3 -1 -4 -23 0 -14 -7 -1 -1 -3 0 0 -31 0 -13 -22 -2 0 0 -1 -4 -10 -42 -48 -3 0 0 -40 -62 -38 -43 -23 -24 -46 -24 -4 -2 0 -1
-65 -26 -2 -7 -1 -2 -2 0 0 0 0 0 0 -1 -37 -3 -50 -101 0 -23 -24 -10 -41 -16 -11 -22 -76 -83 -31 -36 -38 -64 -37 -21 -26 -47 -96 -44 -61 -16 -5 -4 0
-7 -6 -9 -1 -4 -19 -5 -29 0 -4 0 0 -10 -64 -87 -65 -122 -158 0 -87 -13 0 -6 -15 0 0 0 -129 -47 -42 -43 -42 -44 -40 -52 -30 -7 -4 -1 -17 -16 -8 -5
-10 -9 -1 -34 -3 -12 -14 -21 -10 -7 -10 -35 -111 -173 -310 -401 -185 -241 -156 0 -10 -16 0 -3 -2 0 0 0 0 -19 -17 0 -46 -49 -43 -22 -35 -34 -8 -4 -10 -22 -16
-20 -14 -2 -24 -46 -24 -13 -5 -10 -17 -16 -20 -12 -5 -15 -79 -37 -372 -291 -170 -80 0 -5 0 0 0 0 0 0 0 0 0 -27 -30 -34 -33 -49 -49 -54 -38 -26 -46 -78
-50 -34 -31 -7 -60 -45 -9 -8 -3 -6 -3 -2 -3 -5 -1 -10 -31 -1 0 0 0 0 0 0 0 0 0 -26 0 0 0 0 -22 -23 -3 -6 -6 -18 -41 -43 -59 -73 -90
-1 -1 0 0 0 -4 -10 -15 -67 0 0 -4 -54 -18 -12 0 0 0 0 0 0 0 0 0 0 0 -2 -1 -1 -1 -7 -8 -6 -5 -3 -36 -39 -25 -30 -6 -1 -11 -1
-2 -1 -3 -3 -2 -2 -2 -2 0 0 0 0 0 0 0 0 0 0 0 0 0 0 0 -1 -1 -1 0 0 0 0 0 -1 -1 -2 -2 -2 -1 -1 -7 -18 -31 -35 -31
-1 -4 -2 -4 -1 -3 -2 -2 -21 0 0 0 0 0 0 0 0 0 0 0 0 0 0 -1 -1 0 -2 -1 -1 -1 0 -1 -1 -1 -1 -1 -1 -1 -1 -1 -1 0 0
-1 0 -2 -2 0 -1 -1 -2 -2 -2 -4 -30 0 0 0 0 0 0 0 0 0 -2 -7 -1 -1 -1 -1 0 0 0 -1 -3 -2 0 0 0 -1 -1 0 0 0 -1 -1
-1 0 -1 0 0 0 0 0 -1 -1 0 0 -24 0 0 0 0 0 0 0 0 -1 -2 -2 -2 -1 -2 -1 0 0 -1 -1 -1 -1 -2 -3 -2 -1 0 0 0 -3 -2
0 0 0 0 -1 0 0 0 0 0 0 -1 -2 -3 -3 0 0 0 0 -13 -2 -2 -2 -1 -3 -2 0 0 0 -1 -4 -6 -5 -2 -3 -2 -1 -1 -2 -5 -3 -1 0
-4 -3 0 -3 -3 0 0 0 0 0 0 0 0 -2 0 0 0 0 -1 -3 -1 -3 -2 -1 -2 -4 -18 -1 -1 -1 -4 -13 -2 -2 -3 -1 -2 0 -2 -2 -1 -1 -4
-4 -6 -5 -2 -2 -1 -2 0 -2 -2 -1 -1 0 -4 0 0 -1 -1 0 -3 -3 -1 -2 -2 -2 -2 -2 -3 0 -1 -2 -2 -2 -5 -10 -2 -2 -3 -2 -6 -3 -1 -1
-5 -20 -25 -9 -18 -4 -3 -4 -2 -2 -4 -4 -4 -4 -2 -3 -3 -3 -3 -3 -3 -2 -3 -1 -4 -2 -2 -2 -2 -2 -2 -3 -2 -1 -2 -2 -1 -1 -2 -4 -2 -8 -4
-1 -11 -10 -3 -2 -4 -8 -15 -5 -3 -2 -5 -3 -4 -5 -7 -5 -4 -5 -25 -32 -17 -13 -6 -3 -4 -5 -4 -12 -17 -2 -9 -7 -1 -1 -1 -1 -2 -2 -6 -1 -7 -4
-18 -6 -9 -2 -2 -3 -4 -4 -3 -2 -2 -12 0 -6 0 -66 -59 0 -8 -57 -42 -46 -28 -39 -47 -57 -54 -52 -32 -74 -8 -19 -18 -10 -2 -1 -1 -1 -1 -2 -7 -2 -4
-10 -17 -7 -3 -2 0 0 0 0 -1 -3 -4 0 -1 -11 -5 -11 0 0 0 0 0 0 0 0 0 0 0 0 0 0 0 -49 -19 -17 -2 -1 -2 -3 -2 -2 -2 -5
Wind_Speed
29 28 29 31 31 32 35 36 44 43 39 36 41 47 28 25 25 19 15 14 11 11 11 10 9 8 8 8 8 9 7 10 11 17 18 15 9 11 18 12 12 11 8
33 33 28 28 31 32 33 34 35 37 36 34 32 35 42 38 31 28 20 18 17 16 13 12 12 10 10 10 13 10 7 7 9 11 18 19 15 12 10 9 13 15 14
31 33 33 28 29 33 35 33 34 33 35 31 33 24 19 50 41 28 23 22 20 17 17 15 15 14 14 12 11 12 10 9 8 10 14 16 11 11 10 11 13 11 11
37 35 35 31 29 32 33 33 33 34 37 31 30 27 18 20 27 30 26 25 25 21 19 18 19 18 17 16 16 14 13 12 11 13 14 16 14 15 19 17 12 10 11
35 35 36 36 34 31 29 29 30 31 33 32 31 29 28 29 25 28 29 32 26 26 28 22 21 19 17 16 17 15 14 13 13 14 12 16 18 20 19 17 18 16 13
33 34 36 35 24 22 20 19 21 25 26 28 29 32 32 30 27 29 28 29 31 29 27 25 25 23 23 21 19 18 17 15 16 12 17 17 21 21 23 21 17 16 15
28 30 32 24 18 16 15 18 21 22 23 24 27 29 30 30 31 30 30 33 34 33 31 30 29 25 24 24 24 24 24 21 19 17 17 18 20 22 24 23 21 20 18
27 28 27 23 21 18 14 15 19 20 20 22 25 25 26 26 26 28 29 31 34 34 32 30 30 27 26 24 25 23 23 22 22 20 20 21 22 21 24 23 21 21 21
29 31 30 27 19 15 16 16 17 17 18 20 22 24 24 23 20 21 24 27 29 30 27 27 25 23 23 24 25 25 25 26 25 23 27 23 24 18 18 22 22 21 23
20 21 22 16 20 11 15 14 14 14 15 15 15 16 18 20 17 16 15 18 23 25 25 20 18 18 22 19 23 26 28 28 28 25 28 24 24 19 20 20 23 24 23
11 13 16 9 10 11 11 12 11 10 9 9 11 13 14 15 16 14 10 14 17 20 17 12 17 16 19 21 22 25 25 23 22 25 26 26 16 17 24 18 22 24 25
14 13 13 11 10 10 11 10 11 9 7 9 11 12 14 13 13 15 16 18 20 17 12 10 14 18 18 18 14 20 17 18 21 23 26 28 27 26 26 24 22 24 25
19 16 14 14 15 13 11 12 12 13 13 11 11 11 11 12 12 12 11 10 12 12 12 11 11 11 10 12 13 11 15 18 18 22 27 29 31 33 30 33 33 31 30
17 16 15 15 15 15 15 17 16 16 16 15 13 13 12 12 12 12 12 12 12 12 11 13 14 12 14 10 7 10 10 10 18 16 12 10 20 25 27 30 38 39 42
17 17 17 16 16 16 16 16 16 16 16 16 16 15 14 13 13 14 14 14 15 16 15 12 13 13 12 9 11 14 11 10 10 10 12 14 18 14 15 22 23 26 33
18 16 16 17 17 17 16 15 16 15 16 16 16 15 15 13 13 15 15 16 16 17 18 16 15 16 17 15 16 17 18 18 19 22 24 25 24 23 23 25 24 28 30
17 18 17 17 17 18 17 17 14 15 15 15 15 16 16 14 15 16 17 18 18 18 17 17 17 17 18 16 16 18 20 20 21 22 22 23 23 25 26 26 26 26 28
15 16 17 18 18 18 17 18 19 18 16 14 16 17 15 15 16 17 20 22 20 15 17 16 19 19 19 19 20 20 18 18 20 20 20 22 24 25 24 25 28 28 27
15 16 17 17 17 17 18 18 18 18 18 19 17 17 16 17 17 18 20 22 21 22 22 22 18 20 20 19 20 20 20 21 21 22 21 22 23 25 26 27 28 29 32
15 17 18 19 18 19 19 20 21 21 22 21 21 18 17 20 22 19 17 18 21 22 22 22 21 19 20 21 22 22 23 21 22 22 22 23 23 26 28 31 31 31 32
18 16 18 20 20 21 21 23 22 23 24 24 24 23 18 25 24 23 22 22 22 23 23 23 24 23 17 20 23 24 22 22 22 26 25 26 26 26 25 26 27 29 31
20 21 23 23 22 22 23 24 24 23 24 25 26 24 18 19 24 21 23 24 23 21 22 22 24 25 27 27 27 28 29 28 26 26 26 26 28 28 29 29 30 32 31
23 23 25 25 25 25 24 25 24 25 26 27 27 27 26 25 28 28 28 27 26 24 24 22 23 25 24 24 25 28 29 29 28 26 26 27 28 29 29 30 30 31 31
23 23 26 26 23 26 26 27 28 27 26 27 28 29 29 30 30 31 30 28 27 28 29 29 28 25 27 25 25 25 25 26 26 27 27 28 29 31 31 32 33 32 32
22 25 27 28 29 29 30 30 30 31 31 28 30 31 32 32 32 33 33 33 32 32 31 33 33 36 37 34 34 34 35 26 24 26 27 30 31 32 33 32 30 29 30
26 26 27 28 29 30 31 31 31 32 33 30 33 34 33 34 33 33 34 34 34 35 37 36 37 38 38 35 38 40 39 35 30 27 29 31 32 32 33 32 30 29 29
Wind_Direction
294 292 289 283 280 274 268 265 259 260 263 264 264 252 264 260 260 252 240 254 238 247 233 222 227 241 273 285 290 296 288 299 294 309 314 322 333 335 329 339 339 342 350
291 288 288 286 278 275 272 267 266 265 267 265 256 264 254 261 262 262 255 257 259 265 261 250 266 269 266 276 297 290 280 290 291 301 311 314 326 333 337 341 341 339 345
294 289 282 284 279 274 271 271 272 271 272 273 266 246 245 248 256 263 262 263 265 263 265 266 274 276 282 287 288 294 293 296 296 302 311 316 322 335 340 341 339 342 344
289 289 279 280 279 274 272 272 272 275 275 277 276 286 268 241 255 262 267 269 268 267 266 267 274 275 279 283 288 292 297 299 302 304 311 313 314 319 322 326 334 340 344
291 289 279 274 279 277 273 272 274 273 275 279 281 284 280 275 284 270 271 270 271 271 273 271 272 272 275 277 285 289 290 291 296 299 306 307 308 310 312 318 323 331 336
293 290 280 275 280 275 274 273 277 278 279 282 281 277 276 275 277 272 271 274 273 272 272 273 272 275 277 277 277 280 286 285 291 296 299 301 300 303 304 308 315 323 329
302 302 289 277 270 271 277 277 279 280 278 281 280 278 279 277 272 271 272 272 273 273 274 274 273 274 274 277 276 278 279 288 289 293 293 301 304 297 300 302 306 311 319
311 304 302 285 272 269 278 286 285 281 280 279 278 280 282 283 279 277 275 274 274 275 275 274 273 273 276 274 277 278 277 282 284 287 292 301 298 294 296 297 302 307 310
313 301 287 286 292 274 281 288 291 287 284 282 283 282 284 286 289 285 279 278 277 279 281 279 277 274 274 279 277 277 281 285 288 290 290 296 296 291 293 294 297 301 304
303 290 294 300 253 280 279 298 304 302 297 297 298 296 295 294 294 292 292 291 284 282 283 285 283 280 280 283 283 280 284 287 292 294 290 295 290 285 286 286 289 293 299
240 259 286 236 277 285 290 293 307 316 333 342 327 317 313 309 302 293 297 293 294 293 295 294 289 277 285 288 290 288 287 295 297 291 289 290 290 284 291 295 289 288 291
279 279 290 296 308 309 315 300 291 326 328 314 309 320 334 336 326 300 284 280 289 290 310 313 294 286 291 295 309 294 300 300 294 294 287 287 289 291 293 297 297 294 296
313 296 293 301 317 313 307 309 330 332 359 337 336 348 345 351 347 2 4 341 315 320 319 321 312 315 319 317 314 319 310 303 303 297 294 291 288 290 289 287 289 292 291
290 295 291 298 301 314 307 335 353 342 345 26 27 23 17 5 4 4 9 10 351 335 330 318 313 321 314 335 0 338 333 323 308 312 317 312 312 306 301 294 283 286 284
293 296 296 312 312 324 337 335 345 345 338 333 325 338 334 349 341 340 342 340 334 321 318 331 331 327 330 353 336 325 333 338 338 337 330 327 320 319 317 310 307 302 293
295 317 307 309 327 333 337 351 351 349 341 341 338 340 340 358 351 347 343 339 335 323 312 321 328 322 321 328 327 324 322 324 321 316 312 311 315 315 315 310 310 305 301
310 300 314 318 327 330 329 331 351 351 343 341 342 339 340 352 345 342 335 329 328 327 323 324 322 323 320 326 328 324 321 324 323 321 320 320 320 317 315 317 315 313 310
313 314 311 326 323 325 328 320 318 322 339 349 344 340 344 347 342 332 324 314 319 339 330 331 321 324 325 324 325 326 332 335 333 332 329 324 323 321 322 320 316 315 315
297 312 302 317 331 315 316 318 323 324 317 313 338 338 347 349 344 338 332 325 319 318 320 317 331 325 325 329 327 327 327 325 328 327 329 329 328 325 322 320 319 317 315
16 340 321 310 334 338 328 321 319 318 317 321 323 336 344 340 332 336 341 337 327 326 322 322 326 327 325 323 320 320 318 320 320 321 322 324 324 321 318 315 315 315 316
334 1 343 323 334 329 330 325 324 323 320 319 321 325 336 326 326 327 329 330 330 327 325 326 324 328 329 326 318 314 313 315 316 315 317 318 320 321 322 322 321 321 319
325 320 321 324 328 330 328 324 324 330 330 326 322 326 336 333 325 327 325 322 323 325 325 323 321 319 318 317 316 312 308 308 311 312 314 315 316 317 318 319 317 319 318
315 314 317 325 321 325 329 324 328 325 323 322 323 322 322 320 317 317 318 320 319 319 320 320 319 318 317 317 318 316 312 310 310 311 309 309 312 314 315 315 316 317 316
320 320 309 317 330 323 322 320 318 323 326 324 323 323 323 323 321 318 318 327 325 324 323 317 315 313 312 309 310 312 310 312 311 309 307 306 307 309 310 310 311 312 313
333 325 318 317 319 319 321 320 319 317 316 326 324 323 322 322 323 321 322 322 320 318 317 315 312 311 310 311 312 310 303 301 300 304 307 306 306 306 306 307 308 311 312
326 330 324 323 323 322 319 319 319 319 319 325 323 320 319 319 321 319 319 319 317 315 313 313 311 309 308 313 310 310 309 304 300 298 301 302 302 304 304 303 305 308 310